Time,TemperatureF,DewpointF,PressureIn,WindDirection,WindDirectionDegrees,WindSpeedMPH,WindSpeedGustMPH,Humidity,HourlyPrecipIn,Conditions,Clouds,dailyrainin,SoftwareType,DateUTC
2013-03-23 00:01:00,57.1,50.0,30.00,ENE,72,3.0,5.0,77,0.00,,,0.00,VWS V14.01,2013-03-23 04:01:00,
2013-03-23 00:03:00,57.1,50.0,30.00,ENE,73,2.0,5.0,77,0.00,,,0.00,VWS V14.01,2013-03-23 04:03:00,
2013-03-23 00:07:00,57.2,50.1,30.00,East,81,1.0,7.0,77,0.00,,,0.00,VWS V14.01,2013-03-23 04:07:00,
2013-03-23 00:10:00,57.2,50.4,30.00,ENE,75,3.0,7.0,78,0.00,,,0.00,VWS V14.01,2013-03-23 04:10:00,
2013-03-23 00:16:00,57.3,50.5,30.00,ENE,73,2.0,4.0,78,0.00,,,0.00,VWS V14.01,2013-03-23 04:16:00,
2013-03-23 00:22:00,57.3,50.5,29.99,ENE,60,1.0,3.0,78,0.00,,,0.00,VWS V14.01,2013-03-23 04:22:00,
2013-03-23 00:28:00,57.4,51.0,29.99,ENE,75,0.0,6.0,79,0.00,,,0.00,VWS V14.01,2013-03-23 04:28:00,
2013-03-23 00:33:00,57.5,51.0,29.99,ENE,61,2.0,4.0,79,0.00,,,0.00,VWS V14.01,2013-03-23 04:33:00,
2013-03-23 00:38:00,57.5,51.0,29.99,ENE,67,3.0,3.0,79,0.00,,,0.00,VWS V14.01,2013-03-23 04:38:00,
2013-03-23 00:43:00,57.6,51.1,29.99,ENE,72,0.0,3.0,79,0.00,,,0.00,VWS V14.01,2013-03-23 04:43:00,
2013-03-23 00:48:00,57.6,51.1,29.99,NE,51,3.0,5.0,79,0.00,,,0.00,VWS V14.01,2013-03-23 04:48:00,
2013-03-23 00:53:00,57.7,51.6,29.99,NE,50,0.0,3.0,80,0.00,,,0.00,VWS V14.01,2013-03-23 04:53:00,
2013-03-23 00:58:00,57.8,51.3,29.99,ENE,62,1.0,3.0,79,0.00,,,0.00,VWS V14.01,2013-03-23 04:58:00,
2013-03-23 01:04:00,57.7,51.6,29.99,ENE,65,2.0,3.0,80,0.00,,,0.00,VWS V14.01,2013-03-23 05:04:00,
2013-03-23 01:10:00,57.7,51.6,29.98,ENE,60,0.0,3.0,80,0.00,,,0.00,VWS V14.01,2013-03-23 05:10:00,
2013-03-23 01:16:00,57.8,52.0,29.98,ENE,65,1.0,3.0,81,0.00,,,0.00,VWS V14.01,2013-03-23 05:16:00,
2013-03-23 01:22:00,57.8,52.0,29.98,NE,50,1.0,3.0,81,0.00,,,0.00,VWS V14.01,2013-03-23 05:22:00,
2013-03-23 01:28:00,57.9,52.1,29.98,NE,53,0.0,1.0,81,0.00,,,0.00,VWS V14.01,2013-03-23 05:28:00,
2013-03-23 01:33:00,57.9,52.1,29.98,East,80,0.0,4.0,81,0.00,,,0.00,VWS V14.01,2013-03-23 05:33:00,
2013-03-23 01:38:00,57.9,52.1,29.98,ENE,66,1.0,3.0,81,0.00,,,0.00,VWS V14.01,2013-03-23 05:38:00,
2013-03-23 01:43:00,58.0,52.2,29.98,ENE,68,2.0,3.0,81,0.00,,,0.00,VWS V14.01,2013-03-23 05:43:00,
2013-03-23 01:48:00,58.0,52.5,29.98,ENE,70,0.0,3.0,82,0.00,,,0.00,VWS V14.01,2013-03-23 05:48:00,
2013-03-23 01:53:00,58.1,52.6,29.98,ENE,78,1.0,4.0,82,0.00,,,0.00,VWS V14.01,2013-03-23 05:53:00,
2013-03-23 01:59:00,58.2,52.7,29.98,ENE,64,0.0,2.0,82,0.00,,,0.00,VWS V14.01,2013-03-23 05:59:00,
2013-03-23 02:05:00,58.2,52.7,29.98,ENE,63,1.0,3.0,82,0.00,,,0.00,VWS V14.01,2013-03-23 06:05:00,
2013-03-23 02:11:00,58.2,53.1,29.97,ENE,57,1.0,4.0,83,0.00,,,0.00,VWS V14.01,2013-03-23 06:11:00,
2013-03-23 02:17:00,58.4,53.3,29.97,ENE,59,0.0,3.0,83,0.00,,,0.00,VWS V14.01,2013-03-23 06:17:00,
2013-03-23 02:23:00,58.4,53.3,29.97,ENE,67,1.0,3.0,83,0.00,,,0.00,VWS V14.01,2013-03-23 06:23:00,
2013-03-23 02:29:00,58.4,53.3,29.97,ENE,64,0.0,1.0,83,0.00,,,0.00,VWS V14.01,2013-03-23 06:29:00,
2013-03-23 02:35:00,58.7,53.6,29.97,NNE,30,1.0,4.0,83,0.00,,,0.00,VWS V14.01,2013-03-23 06:35:00,
2013-03-23 02:41:00,58.8,53.7,29.96,ENE,69,2.0,3.0,83,0.00,,,0.00,VWS V14.01,2013-03-23 06:41:00,
2013-03-23 02:47:00,58.7,53.6,29.96,ENE,62,1.0,3.0,83,0.00,,,0.00,VWS V14.01,2013-03-23 06:47:00,
2013-03-23 02:53:00,58.7,53.6,29.96,ENE,68,2.0,3.0,83,0.00,,,0.00,VWS V14.01,2013-03-23 06:53:00,
2013-03-23 02:58:00,58.7,53.9,29.96,ENE,64,0.0,4.0,84,0.00,,,0.00,VWS V14.01,2013-03-23 06:58:00,
2013-03-23 03:06:00,58.6,53.8,29.95,ENE,65,1.0,1.0,84,0.00,,,0.00,VWS V14.01,2013-03-23 07:06:00,
2013-03-23 03:12:00,58.6,53.8,29.95,ENE,66,0.0,3.0,84,0.00,,,0.00,VWS V14.01,2013-03-23 07:12:00,
2013-03-23 03:18:00,58.6,54.1,29.95,East,86,0.0,3.0,85,0.00,,,0.00,VWS V14.01,2013-03-23 07:18:00,
2013-03-23 03:23:00,58.7,54.2,29.94,ENE,77,1.0,3.0,85,0.00,,,0.00,VWS V14.01,2013-03-23 07:23:00,
2013-03-23 03:28:00,58.8,54.3,29.94,ENE,72,0.0,3.0,85,0.00,,,0.00,VWS V14.01,2013-03-23 07:28:00,
2013-03-23 03:36:00,58.9,54.4,29.94,ENE,75,2.0,3.0,85,0.00,,,0.00,VWS V14.01,2013-03-23 07:36:00,
2013-03-23 03:42:00,58.9,54.4,29.94,East,89,0.0,3.0,85,0.00,,,0.00,VWS V14.01,2013-03-23 07:42:00,
2013-03-23 03:48:00,59.0,54.5,29.94,NE,50,0.0,2.0,85,0.00,,,0.00,VWS V14.01,2013-03-23 07:48:00,
2013-03-23 03:53:00,59.0,54.5,29.94,ENE,60,2.0,3.0,85,0.00,,,0.00,VWS V14.01,2013-03-23 07:53:00,
2013-03-23 03:58:00,59.0,54.5,29.93,ENE,60,0.0,3.0,85,0.00,,,0.00,VWS V14.01,2013-03-23 07:58:00,
2013-03-23 04:03:00,59.1,54.6,29.93,ENE,61,1.0,2.0,85,0.00,,,0.00,VWS V14.01,2013-03-23 08:03:00,
2013-03-23 04:08:00,59.2,54.7,29.93,ENE,62,2.0,5.0,85,0.00,,,0.00,VWS V14.01,2013-03-23 08:08:00,
2013-03-23 04:13:00,59.3,54.8,29.93,ENE,76,0.0,3.0,85,0.00,,,0.00,VWS V14.01,2013-03-23 08:13:00,
2013-03-23 04:18:00,59.4,54.9,29.93,East,79,0.0,3.0,85,0.00,,,0.00,VWS V14.01,2013-03-23 08:18:00,
2013-03-23 04:23:00,59.5,55.0,29.92,East,79,0.0,3.0,85,0.00,,,0.00,VWS V14.01,2013-03-23 08:23:00,
2013-03-23 04:28:00,59.6,55.1,29.92,East,79,0.0,2.0,85,0.00,,,0.00,VWS V14.01,2013-03-23 08:28:00,
2013-03-23 04:33:00,59.6,55.4,29.92,East,81,1.0,3.0,86,0.00,,,0.00,VWS V14.01,2013-03-23 08:33:00,
2013-03-23 04:38:00,59.7,55.5,29.92,East,81,0.0,2.0,86,0.00,,,0.00,VWS V14.01,2013-03-23 08:38:00,
2013-03-23 04:43:00,59.7,55.5,29.92,East,83,0.0,5.0,86,0.00,,,0.00,VWS V14.01,2013-03-23 08:43:00,
2013-03-23 04:48:00,59.8,55.6,29.92,ENE,73,0.0,4.0,86,0.00,,,0.00,VWS V14.01,2013-03-23 08:48:00,
2013-03-23 04:53:00,59.8,55.6,29.92,ENE,73,0.0,2.0,86,0.00,,,0.00,VWS V14.01,2013-03-23 08:53:00,
2013-03-23 04:58:00,59.8,55.6,29.91,ENE,73,0.0,2.0,86,0.00,,,0.00,VWS V14.01,2013-03-23 08:58:00,
2013-03-23 05:03:00,59.7,55.5,29.92,ENE,73,0.0,1.0,86,0.00,,,0.00,VWS V14.01,2013-03-23 09:03:00,
2013-03-23 05:08:00,59.7,55.5,29.91,ENE,73,0.0,0.0,86,0.00,,,0.00,VWS V14.01,2013-03-23 09:08:00,
2013-03-23 05:13:00,59.7,55.8,29.91,ENE,73,0.0,1.0,87,0.00,,,0.00,VWS V14.01,2013-03-23 09:13:00,
2013-03-23 05:18:00,59.6,55.7,29.91,ENE,73,1.0,1.0,87,0.00,,,0.00,VWS V14.01,2013-03-23 09:18:00,
2013-03-23 05:23:00,59.6,55.7,29.91,ENE,73,0.0,1.0,87,0.00,,,0.00,VWS V14.01,2013-03-23 09:23:00,
2013-03-23 05:33:00,59.7,55.8,29.91,ENE,73,0.0,1.0,87,0.00,,,0.00,VWS V14.01,2013-03-23 09:33:00,
2013-03-23 05:38:00,59.7,55.8,29.91,ENE,73,0.0,1.0,87,0.00,,,0.00,VWS V14.01,2013-03-23 09:38:00,
2013-03-23 05:43:00,59.8,55.9,29.91,ENE,73,0.0,1.0,87,0.00,,,0.00,VWS V14.01,2013-03-23 09:43:00,
2013-03-23 05:48:00,59.8,55.9,29.91,ENE,73,0.0,1.0,87,0.00,,,0.00,VWS V14.01,2013-03-23 09:48:00,
2013-03-23 05:55:00,59.8,55.9,29.92,ENE,74,0.0,0.0,87,0.00,,,0.00,VWS V14.01,2013-03-23 09:55:00,
2013-03-23 06:01:00,59.8,56.2,29.92,ENE,73,0.0,1.0,88,0.00,,,0.00,VWS V14.01,2013-03-23 10:01:00,
2013-03-23 06:07:00,59.9,56.3,29.92,ENE,73,0.0,0.0,88,0.00,,,0.00,VWS V14.01,2013-03-23 10:07:00,
2013-03-23 06:13:00,59.9,56.3,29.92,ENE,73,0.0,1.0,88,0.00,,,0.00,VWS V14.01,2013-03-23 10:13:00,
2013-03-23 06:18:00,60.0,56.4,29.92,ENE,73,0.0,1.0,88,0.00,,,0.00,VWS V14.01,2013-03-23 10:18:00,
2013-03-23 06:23:00,60.0,56.4,29.92,ENE,73,0.0,0.0,88,0.00,,,0.00,VWS V14.01,2013-03-23 10:23:00,
2013-03-23 06:28:00,60.0,56.4,29.92,ENE,73,0.0,0.0,88,0.00,,,0.00,VWS V14.01,2013-03-23 10:28:00,
2013-03-23 06:33:00,60.0,56.4,29.92,ENE,73,0.0,0.0,88,0.00,,,0.00,VWS V14.01,2013-03-23 10:33:00,
2013-03-23 06:38:00,60.0,56.4,29.92,ENE,73,0.0,0.0,88,0.00,,,0.00,VWS V14.01,2013-03-23 10:38:00,
2013-03-23 06:43:00,60.1,56.8,29.92,ENE,73,0.0,1.0,89,0.00,,,0.00,VWS V14.01,2013-03-23 10:43:00,
2013-03-23 06:48:00,60.2,57.0,29.92,ENE,73,0.0,0.0,89,0.00,,,0.00,VWS V14.01,2013-03-23 10:48:00,
2013-03-23 06:53:00,60.2,57.0,29.92,ENE,73,0.0,0.0,89,0.00,,,0.00,VWS V14.01,2013-03-23 10:53:00,
2013-03-23 06:59:00,60.3,57.0,29.92,ENE,73,0.0,0.0,89,0.00,,,0.00,VWS V14.01,2013-03-23 10:59:00,
2013-03-23 07:05:00,60.4,57.2,29.92,ENE,73,0.0,0.0,89,0.00,,,0.00,VWS V14.01,2013-03-23 11:05:00,
2013-03-23 07:13:00,60.5,57.6,29.91,ENE,73,0.0,0.0,90,0.00,,,0.00,VWS V14.01,2013-03-23 11:13:00,
2013-03-23 07:18:00,60.7,57.8,29.91,ENE,73,0.0,0.0,90,0.00,,,0.00,VWS V14.01,2013-03-23 11:18:00,
2013-03-23 07:23:00,60.8,57.8,29.92,ENE,73,0.0,0.0,90,0.00,,,0.00,VWS V14.01,2013-03-23 11:23:00,
2013-03-23 07:28:00,60.8,57.8,29.92,ENE,73,0.0,0.0,90,0.00,,,0.00,VWS V14.01,2013-03-23 11:28:00,
2013-03-23 07:33:00,60.9,58.0,29.92,ENE,73,0.0,0.0,90,0.00,,,0.00,VWS V14.01,2013-03-23 11:33:00,
2013-03-23 07:38:00,61.0,58.0,29.91,ENE,73,0.0,1.0,90,0.00,,,0.00,VWS V14.01,2013-03-23 11:38:00,
2013-03-23 07:43:00,61.0,58.0,29.91,ENE,73,0.0,0.0,90,0.00,,,0.00,VWS V14.01,2013-03-23 11:43:00,
2013-03-23 07:48:00,61.1,58.2,29.91,ENE,73,0.0,0.0,90,0.00,,,0.00,VWS V14.01,2013-03-23 11:48:00,
2013-03-23 07:53:00,61.1,58.2,29.91,ENE,73,0.0,0.0,90,0.00,,,0.00,VWS V14.01,2013-03-23 11:53:00,
2013-03-23 07:58:00,61.2,58.6,29.90,ENE,73,0.0,0.0,91,0.00,,,0.00,VWS V14.01,2013-03-23 11:58:00,
2013-03-23 08:03:00,61.2,58.6,29.91,ENE,73,0.0,0.0,91,0.00,,,0.00,VWS V14.01,2013-03-23 12:03:00,
2013-03-23 08:08:00,61.4,58.8,29.91,ENE,73,0.0,0.0,91,0.00,,,0.00,VWS V14.01,2013-03-23 12:08:00,
2013-03-23 08:13:00,61.6,59.0,29.91,ENE,73,0.0,0.0,91,0.00,,,0.00,VWS V14.01,2013-03-23 12:13:00,
2013-03-23 08:21:00,62.2,59.8,29.91,ENE,73,0.0,0.0,92,0.00,,,0.00,VWS V14.01,2013-03-23 12:21:00,
2013-03-23 08:27:00,62.6,59.9,29.91,ENE,73,0.0,1.0,91,0.00,,,0.00,VWS V14.01,2013-03-23 12:27:00,
2013-03-23 08:33:00,62.9,60.2,29.91,ENE,73,0.0,0.0,91,0.00,,,0.00,VWS V14.01,2013-03-23 12:33:00,
2013-03-23 08:38:00,63.1,60.4,29.92,ENE,73,0.0,0.0,91,0.00,,,0.00,VWS V14.01,2013-03-23 12:38:00,
2013-03-23 08:43:00,63.4,60.7,29.91,ENE,73,0.0,0.0,91,0.00,,,0.00,VWS V14.01,2013-03-23 12:43:00,
2013-03-23 08:53:00,63.8,60.8,29.91,ENE,73,1.0,2.0,90,0.00,,,0.00,VWS V14.01,2013-03-23 12:53:00,
2013-03-23 09:00:00,64.0,61.0,29.91,ENE,75,0.0,0.0,90,0.00,,,0.00,VWS V14.01,2013-03-23 13:00:00,
2013-03-23 09:06:00,64.3,61.6,29.91,SSW,196,1.0,3.0,91,0.00,,,0.00,VWS V14.01,2013-03-23 13:06:00,
2013-03-23 09:12:00,64.6,61.6,29.91,SSW,196,0.0,1.0,90,0.00,,,0.00,VWS V14.01,2013-03-23 13:12:00,
2013-03-23 09:18:00,65.0,62.0,29.91,SSW,196,0.0,0.0,90,0.00,,,0.00,VWS V14.01,2013-03-23 13:18:00,
2013-03-23 09:23:00,65.3,62.3,29.91,SSW,196,0.0,1.0,90,0.00,,,0.00,VWS V14.01,2013-03-23 13:23:00,
2013-03-23 09:28:00,65.6,62.3,29.91,South,191,0.0,1.0,89,0.00,,,0.00,VWS V14.01,2013-03-23 13:28:00,
2013-03-23 09:33:00,65.9,62.6,29.91,South,191,0.0,2.0,89,0.00,,,0.00,VWS V14.01,2013-03-23 13:33:00,
2013-03-23 09:38:00,66.1,62.8,29.91,South,191,0.0,3.0,89,0.00,,,0.00,VWS V14.01,2013-03-23 13:38:00,
2013-03-23 09:43:00,66.3,63.0,29.91,South,191,0.0,1.0,89,0.00,,,0.00,VWS V14.01,2013-03-23 13:43:00,
2013-03-23 09:48:00,66.6,62.9,29.91,South,191,0.0,3.0,88,0.00,,,0.00,VWS V14.01,2013-03-23 13:48:00,
2013-03-23 09:53:00,66.8,63.1,29.91,South,191,0.0,5.0,88,0.00,,,0.00,VWS V14.01,2013-03-23 13:53:00,
2013-03-23 09:58:00,66.9,63.2,29.91,South,191,2.0,3.0,88,0.00,,,0.00,VWS V14.01,2013-03-23 13:58:00,
2013-03-23 10:03:00,67.0,63.0,29.90,South,191,0.0,3.0,87,0.00,,,0.00,VWS V14.01,2013-03-23 14:03:00,
2013-03-23 10:08:00,67.2,63.2,29.90,South,191,0.0,3.0,87,0.00,,,0.00,VWS V14.01,2013-03-23 14:08:00,
2013-03-23 10:15:00,67.5,63.5,29.90,South,191,0.0,3.0,87,0.00,,,0.00,VWS V14.01,2013-03-23 14:15:00,
2013-03-23 10:22:00,67.8,63.8,29.89,SSW,211,2.0,4.0,87,0.00,,,0.00,VWS V14.01,2013-03-23 14:22:00,
2013-03-23 10:28:00,68.0,64.0,29.89,SSW,210,1.0,5.0,87,0.00,,,0.00,VWS V14.01,2013-03-23 14:28:00,
2013-03-23 10:33:00,68.2,63.9,29.90,SSW,211,0.0,7.0,86,0.00,,,0.00,VWS V14.01,2013-03-23 14:33:00,
2013-03-23 10:38:00,68.1,63.4,29.90,SSW,208,3.0,6.0,85,0.00,,,0.00,VWS V14.01,2013-03-23 14:38:00,
2013-03-23 10:46:00,67.6,63.3,29.90,SSW,210,0.0,4.0,86,0.00,,,0.00,VWS V14.01,2013-03-23 14:46:00,
2013-03-23 10:52:00,67.0,63.3,29.91,SW,219,5.0,5.0,88,0.00,,,0.00,VWS V14.01,2013-03-23 14:52:00,
2013-03-23 10:58:00,66.7,63.4,29.92,SW,222,5.0,6.0,89,0.00,,,0.00,VWS V14.01,2013-03-23 14:58:00,
2013-03-23 11:03:00,66.6,63.3,29.92,SW,231,2.0,10.0,89,0.00,,,0.00,VWS V14.01,2013-03-23 15:03:00,
2013-03-23 11:10:00,66.3,63.3,29.91,SSW,196,0.0,5.0,90,0.00,,,0.00,VWS V14.01,2013-03-23 15:10:00,
2013-03-23 11:16:00,66.2,63.5,29.90,SW,222,0.0,0.0,91,0.01,,,0.01,VWS V14.01,2013-03-23 15:16:00,
2013-03-23 11:22:00,66.0,63.6,29.90,SW,222,0.0,1.0,92,0.01,,,0.01,VWS V14.01,2013-03-23 15:22:00,
2013-03-23 11:28:00,65.8,63.4,29.91,SW,222,2.0,5.0,92,0.01,,,0.01,VWS V14.01,2013-03-23 15:28:00,
2013-03-23 11:33:00,65.6,63.2,29.91,SW,222,0.0,3.0,92,0.02,,,0.02,VWS V14.01,2013-03-23 15:33:00,
2013-03-23 11:38:00,65.6,63.5,29.90,SW,222,0.0,1.0,93,0.03,,,0.03,VWS V14.01,2013-03-23 15:38:00,
2013-03-23 11:43:00,65.6,63.5,29.90,SW,221,0.0,1.0,93,0.04,,,0.04,VWS V14.01,2013-03-23 15:43:00,
2013-03-23 11:48:00,65.6,63.8,29.89,SW,221,0.0,1.0,94,0.04,,,0.04,VWS V14.01,2013-03-23 15:48:00,
2013-03-23 11:53:00,65.6,63.8,29.89,SW,222,0.0,0.0,94,0.04,,,0.04,VWS V14.01,2013-03-23 15:53:00,
2013-03-23 11:58:00,65.6,63.8,29.88,SW,222,0.0,0.0,94,0.04,,,0.04,VWS V14.01,2013-03-23 15:58:00,
2013-03-23 12:03:00,65.5,63.7,29.87,SW,222,0.0,1.0,94,0.05,,,0.05,VWS V14.01,2013-03-23 16:03:00,
2013-03-23 12:08:00,65.5,64.0,29.88,SW,221,0.0,0.0,95,0.06,,,0.06,VWS V14.01,2013-03-23 16:08:00,
2013-03-23 12:13:00,65.5,64.0,29.87,SW,221,0.0,0.0,95,0.05,,,0.06,VWS V14.01,2013-03-23 16:13:00,
2013-03-23 12:19:00,65.6,64.1,29.87,SW,221,0.0,0.0,95,0.06,,,0.07,VWS V14.01,2013-03-23 16:19:00,
2013-03-23 12:25:00,65.8,64.3,29.87,SW,221,0.0,0.0,95,0.06,,,0.07,VWS V14.01,2013-03-23 16:25:00,
2013-03-23 12:32:00,65.9,64.4,29.86,SW,222,0.0,1.0,95,0.07,,,0.08,VWS V14.01,2013-03-23 16:32:00,
2013-03-23 12:38:00,66.0,64.5,29.87,SW,222,0.0,1.0,95,0.06,,,0.08,VWS V14.01,2013-03-23 16:38:00,
2013-03-23 12:43:00,66.2,65.0,29.88,SW,222,2.0,4.0,96,0.07,,,0.10,VWS V14.01,2013-03-23 16:43:00,
2013-03-23 12:48:00,66.2,65.0,29.88,SSW,204,0.0,4.0,96,0.07,,,0.11,VWS V14.01,2013-03-23 16:48:00,
2013-03-23 12:53:00,66.1,64.9,29.88,SSW,213,0.0,7.0,96,0.08,,,0.12,VWS V14.01,2013-03-23 16:53:00,
2013-03-23 12:58:00,66.1,64.9,29.87,SSW,207,1.0,3.0,96,0.09,,,0.13,VWS V14.01,2013-03-23 16:58:00,
2013-03-23 13:03:00,66.1,64.9,29.85,SSW,206,0.0,3.0,96,0.10,,,0.14,VWS V14.01,2013-03-23 17:03:00,
2013-03-23 13:08:00,66.0,64.8,29.83,SSW,206,0.0,1.0,96,0.09,,,0.14,VWS V14.01,2013-03-23 17:08:00,
2013-03-23 13:13:00,66.1,64.9,29.85,SSW,206,0.0,3.0,96,0.09,,,0.15,VWS V14.01,2013-03-23 17:13:00,
2013-03-23 13:18:00,66.1,64.9,29.85,WSW,238,2.0,2.0,96,0.10,,,0.16,VWS V14.01,2013-03-23 17:18:00,
2013-03-23 13:23:00,66.1,64.9,29.85,West,277,0.0,3.0,96,0.12,,,0.18,VWS V14.01,2013-03-23 17:23:00,
2013-03-23 13:28:00,66.2,65.0,29.85,West,277,0.0,0.0,96,0.12,,,0.19,VWS V14.01,2013-03-23 17:28:00,
2013-03-23 13:33:00,66.2,65.0,29.86,West,277,0.0,1.0,96,0.13,,,0.20,VWS V14.01,2013-03-23 17:33:00,
2013-03-23 13:38:00,66.1,64.9,29.85,West,276,0.0,1.0,96,0.12,,,0.20,VWS V14.01,2013-03-23 17:38:00,
2013-03-23 13:43:00,66.1,64.9,29.86,West,277,0.0,0.0,96,0.13,,,0.21,VWS V14.01,2013-03-23 17:43:00,
2013-03-23 13:48:00,66.1,64.9,29.86,West,276,0.0,0.0,96,0.11,,,0.21,VWS V14.01,2013-03-23 17:48:00,
2013-03-23 13:53:00,66.1,64.9,29.86,West,276,0.0,0.0,96,0.11,,,0.22,VWS V14.01,2013-03-23 17:53:00,
2013-03-23 13:58:00,66.1,64.9,29.85,West,276,0.0,1.0,96,0.11,,,0.23,VWS V14.01,2013-03-23 17:58:00,
2013-03-23 14:03:00,66.1,64.9,29.86,West,276,0.0,0.0,96,0.11,,,0.24,VWS V14.01,2013-03-23 18:03:00,
2013-03-23 14:08:00,66.1,65.2,29.86,NE,50,0.0,3.0,97,0.13,,,0.27,VWS V14.01,2013-03-23 18:08:00,
2013-03-23 14:13:00,66.2,65.3,29.85,NE,50,0.0,0.0,97,0.15,,,0.29,VWS V14.01,2013-03-23 18:13:00,
2013-03-23 14:18:00,66.1,65.2,29.85,NE,50,0.0,1.0,97,0.16,,,0.31,VWS V14.01,2013-03-23 18:18:00,
2013-03-23 14:23:00,66.2,65.3,29.85,NE,50,0.0,0.0,97,0.17,,,0.33,VWS V14.01,2013-03-23 18:23:00,
2013-03-23 14:28:00,66.2,65.3,29.86,NE,50,0.0,1.0,97,0.16,,,0.34,VWS V14.01,2013-03-23 18:28:00,
2013-03-23 14:33:00,66.2,65.3,29.86,NE,50,0.0,0.0,97,0.16,,,0.35,VWS V14.01,2013-03-23 18:33:00,
2013-03-23 14:38:00,66.1,65.2,29.84,NE,50,0.0,0.0,97,0.16,,,0.36,VWS V14.01,2013-03-23 18:38:00,
2013-03-23 14:43:00,66.1,65.2,29.85,NE,50,0.0,1.0,97,0.17,,,0.37,VWS V14.01,2013-03-23 18:43:00,
2013-03-23 14:50:00,66.0,65.1,29.85,NE,50,0.0,0.0,97,0.17,,,0.38,VWS V14.01,2013-03-23 18:50:00,
2013-03-23 14:57:00,66.1,65.2,29.84,NE,50,0.0,0.0,97,0.17,,,0.39,VWS V14.01,2013-03-23 18:57:00,
2013-03-23 15:03:00,66.1,65.2,29.84,NE,50,1.0,3.0,97,0.16,,,0.39,VWS V14.01,2013-03-23 19:03:00,
2013-03-23 15:08:00,66.1,65.2,29.82,East,85,0.0,5.0,97,0.17,,,0.41,VWS V14.01,2013-03-23 19:08:00,
2013-03-23 15:15:00,66.2,65.3,29.81,East,90,0.0,0.0,97,0.14,,,0.43,VWS V14.01,2013-03-23 19:15:00,
2013-03-23 15:21:00,66.3,65.4,29.85,SW,235,0.0,2.0,97,0.13,,,0.44,VWS V14.01,2013-03-23 19:21:00,
2013-03-23 15:27:00,66.4,65.5,29.82,SW,235,0.0,0.0,97,0.13,,,0.46,VWS V14.01,2013-03-23 19:27:00,
2013-03-23 15:33:00,66.6,66.0,29.82,SW,235,0.0,1.0,98,0.15,,,0.49,VWS V14.01,2013-03-23 19:33:00,
2013-03-23 15:38:00,66.4,65.5,29.84,SW,216,0.0,4.0,97,0.15,,,0.50,VWS V14.01,2013-03-23 19:38:00,
2013-03-23 15:45:00,66.3,65.4,29.83,SW,215,0.0,2.0,97,0.17,,,0.54,VWS V14.01,2013-03-23 19:45:00,
2013-03-23 15:53:00,66.1,65.2,29.81,SW,215,0.0,1.0,97,0.19,,,0.57,VWS V14.01,2013-03-23 19:53:00,
2013-03-23 15:58:00,66.0,65.1,29.81,SW,216,0.0,0.0,97,0.22,,,0.60,VWS V14.01,2013-03-23 19:58:00,
2013-03-23 16:03:00,66.0,65.4,29.81,SW,215,0.0,0.0,98,0.22,,,0.61,VWS V14.01,2013-03-23 20:03:00,
2013-03-23 16:08:00,66.0,65.4,29.81,SW,216,0.0,1.0,98,0.24,,,0.64,VWS V14.01,2013-03-23 20:08:00,
2013-03-23 16:13:00,65.9,65.0,29.81,SW,215,0.0,0.0,97,0.25,,,0.66,VWS V14.01,2013-03-23 20:13:00,
2013-03-23 16:18:00,65.8,65.2,29.81,SW,215,0.0,0.0,98,0.24,,,0.68,VWS V14.01,2013-03-23 20:18:00,
2013-03-23 16:25:00,65.8,64.9,29.80,SW,215,0.0,1.0,97,0.25,,,0.70,VWS V14.01,2013-03-23 20:25:00,
2013-03-23 16:33:00,65.6,64.7,29.79,NE,46,0.0,0.0,97,0.23,,,0.70,VWS V14.01,2013-03-23 20:33:00,
2013-03-23 16:38:00,65.6,64.7,29.79,North,4,2.0,4.0,97,0.21,,,0.70,VWS V14.01,2013-03-23 20:38:00,
2013-03-23 16:43:00,65.5,64.6,29.79,ENE,70,2.0,5.0,97,0.20,,,0.70,VWS V14.01,2013-03-23 20:43:00,
2013-03-23 16:48:00,65.4,64.8,29.80,ENE,71,0.0,3.0,98,0.19,,,0.71,VWS V14.01,2013-03-23 20:48:00,
2013-03-23 16:53:00,65.5,64.9,29.79,East,85,2.0,3.0,98,0.16,,,0.71,VWS V14.01,2013-03-23 20:53:00,
2013-03-23 16:58:00,63.1,61.3,29.78,NE,54,14.0,23.0,94,0.15,,,0.72,VWS V14.01,2013-03-23 20:58:00,
2013-03-23 17:03:00,60.4,59.0,29.79,ENE,70,10.0,16.0,95,0.12,,,0.72,VWS V14.01,2013-03-23 21:03:00,
2013-03-23 17:08:00,59.7,58.6,29.79,ENE,74,10.0,13.0,96,0.12,,,0.73,VWS V14.01,2013-03-23 21:08:00,
2013-03-23 17:13:00,59.0,57.9,29.79,East,81,9.0,19.0,96,0.11,,,0.75,VWS V14.01,2013-03-23 21:13:00,
2013-03-23 17:18:00,58.4,57.3,29.81,ENE,73,11.0,15.0,96,0.11,,,0.77,VWS V14.01,2013-03-23 21:18:00,
2013-03-23 17:23:00,58.0,56.9,29.81,ENE,63,8.0,16.0,96,0.10,,,0.78,VWS V14.01,2013-03-23 21:23:00,
2013-03-23 17:28:00,57.7,56.6,29.81,NW,320,4.0,14.0,96,0.11,,,0.80,VWS V14.01,2013-03-23 21:28:00,
2013-03-23 17:33:00,57.5,56.4,29.81,East,98,8.0,11.0,96,0.11,,,0.81,VWS V14.01,2013-03-23 21:33:00,
2013-03-23 17:38:00,57.4,56.3,29.82,East,87,7.0,12.0,96,0.12,,,0.82,VWS V14.01,2013-03-23 21:38:00,
2013-03-23 17:43:00,57.3,56.2,29.83,ENE,73,8.0,11.0,96,0.13,,,0.83,VWS V14.01,2013-03-23 21:43:00,
2013-03-23 17:49:00,57.3,56.2,29.84,ENE,64,3.0,7.0,96,0.13,,,0.84,VWS V14.01,2013-03-23 21:49:00,
2013-03-23 17:55:00,57.2,56.1,29.86,NE,39,1.0,8.0,96,0.15,,,0.86,VWS V14.01,2013-03-23 21:55:00,
2013-03-23 18:02:00,56.9,55.8,29.85,ENE,75,9.0,16.0,96,0.17,,,0.89,VWS V14.01,2013-03-23 22:02:00,
2013-03-23 18:08:00,56.3,55.2,29.85,ENE,76,2.0,11.0,96,0.21,,,0.93,VWS V14.01,2013-03-23 22:08:00,
2013-03-23 18:13:00,56.0,54.9,29.84,ENE,73,4.0,10.0,96,0.24,,,0.97,VWS V14.01,2013-03-23 22:13:00,
2013-03-23 18:18:00,56.1,55.3,29.83,ENE,66,3.0,9.0,97,0.26,,,1.01,VWS V14.01,2013-03-23 22:18:00,
2013-03-23 18:23:00,56.1,55.3,29.83,ESE,110,3.0,8.0,97,0.27,,,1.04,VWS V14.01,2013-03-23 22:23:00,
2013-03-23 18:28:00,56.1,55.3,29.83,ENE,75,3.0,10.0,97,0.29,,,1.07,VWS V14.01,2013-03-23 22:28:00,
2013-03-23 18:35:00,56.2,55.4,29.84,East,90,6.0,6.0,97,0.30,,,1.11,VWS V14.01,2013-03-23 22:35:00,
2013-03-23 18:41:00,56.4,55.6,29.85,NNE,28,1.0,3.0,97,0.32,,,1.14,VWS V14.01,2013-03-23 22:41:00,
2013-03-23 18:47:00,56.5,55.7,29.86,NNE,16,0.0,3.0,97,0.35,,,1.18,VWS V14.01,2013-03-23 22:47:00,
2013-03-23 18:53:00,56.7,55.9,29.85,East,101,2.0,6.0,97,0.38,,,1.22,VWS V14.01,2013-03-23 22:53:00,
2013-03-23 18:58:00,56.7,55.9,29.86,North,4,0.0,6.0,97,0.39,,,1.24,VWS V14.01,2013-03-23 22:58:00,
2013-03-23 19:03:00,56.8,56.0,29.85,East,81,0.0,5.0,97,0.39,,,1.27,VWS V14.01,2013-03-23 23:03:00,
2013-03-23 19:08:00,56.9,56.1,29.85,ENE,67,0.0,5.0,97,0.39,,,1.29,VWS V14.01,2013-03-23 23:08:00,
2013-03-23 19:13:00,56.9,56.1,29.85,NE,54,0.0,5.0,97,0.38,,,1.31,VWS V14.01,2013-03-23 23:13:00,
2013-03-23 19:18:00,57.0,56.4,29.85,East,86,3.0,6.0,98,0.36,,,1.33,VWS V14.01,2013-03-23 23:18:00,
2013-03-23 19:23:00,57.1,56.5,29.84,ENE,59,0.0,6.0,98,0.34,,,1.35,VWS V14.01,2013-03-23 23:23:00,
2013-03-23 19:29:00,57.2,56.6,29.84,ENE,60,0.0,1.0,98,0.30,,,1.37,VWS V14.01,2013-03-23 23:29:00,
2013-03-23 19:35:00,57.3,56.7,29.84,ENE,73,0.0,1.0,98,0.28,,,1.38,VWS V14.01,2013-03-23 23:35:00,
2013-03-23 19:41:00,57.5,56.9,29.84,NE,46,0.0,2.0,98,0.25,,,1.38,VWS V14.01,2013-03-23 23:41:00,
2013-03-23 19:47:00,57.7,57.1,29.84,NE,47,0.0,3.0,98,0.23,,,1.39,VWS V14.01,2013-03-23 23:47:00,
2013-03-23 19:53:00,57.7,57.1,29.84,NNE,21,0.0,4.0,98,0.20,,,1.39,VWS V14.01,2013-03-23 23:53:00,
2013-03-23 19:58:00,57.6,57.0,29.85,NE,55,6.0,8.0,98,0.18,,,1.40,VWS V14.01,2013-03-23 23:58:00,
2013-03-23 20:03:00,57.5,56.9,29.85,NE,43,0.0,9.0,98,0.16,,,1.40,VWS V14.01,2013-03-24 00:03:00,
2013-03-23 20:08:00,57.5,56.9,29.85,East,79,3.0,7.0,98,0.13,,,1.40,VWS V14.01,2013-03-24 00:08:00,
2013-03-23 20:13:00,57.4,56.8,29.86,ENE,66,0.0,8.0,98,0.11,,,1.40,VWS V14.01,2013-03-24 00:13:00,
2013-03-23 20:20:00,57.1,56.5,29.87,NE,49,2.0,5.0,98,0.07,,,1.40,VWS V14.01,2013-03-24 00:20:00,
2013-03-23 20:26:00,57.2,56.6,29.87,East,79,3.0,5.0,98,0.05,,,1.40,VWS V14.01,2013-03-24 00:26:00,
2013-03-23 20:32:00,57.3,56.7,29.86,NNW,348,3.0,6.0,98,0.05,,,1.41,VWS V14.01,2013-03-24 00:32:00,
2013-03-23 20:38:00,57.3,56.7,29.86,NE,46,0.0,6.0,98,0.03,,,1.41,VWS V14.01,2013-03-24 00:38:00,
2013-03-23 20:43:00,57.3,56.7,29.86,NNE,22,3.0,6.0,98,0.04,,,1.42,VWS V14.01,2013-03-24 00:43:00,
2013-03-23 20:51:00,57.5,56.9,29.88,NNE,25,0.0,1.0,98,0.04,,,1.43,VWS V14.01,2013-03-24 00:51:00,
2013-03-23 20:57:00,57.6,57.0,29.89,NE,35,0.0,1.0,98,0.05,,,1.44,VWS V14.01,2013-03-24 00:57:00,
2013-03-23 21:03:00,57.7,57.1,29.88,NE,35,0.0,2.0,98,0.07,,,1.47,VWS V14.01,2013-03-24 01:03:00,
2013-03-23 21:08:00,57.7,57.1,29.88,NE,35,0.0,0.0,98,0.09,,,1.49,VWS V14.01,2013-03-24 01:08:00,
2013-03-23 21:13:00,57.9,57.3,29.87,NE,34,0.0,1.0,98,0.10,,,1.50,VWS V14.01,2013-03-24 01:13:00,
2013-03-23 21:18:00,58.0,57.4,29.87,NE,35,0.0,1.0,98,0.13,,,1.53,VWS V14.01,2013-03-24 01:18:00,
2013-03-23 21:23:00,58.1,57.5,29.84,SSE,156,0.0,2.0,98,0.15,,,1.55,VWS V14.01,2013-03-24 01:23:00,
2013-03-23 21:28:00,58.2,57.6,29.82,East,100,0.0,7.0,98,0.18,,,1.58,VWS V14.01,2013-03-24 01:28:00,
2013-03-23 21:33:00,58.4,57.8,29.84,East,85,0.0,4.0,98,0.20,,,1.60,VWS V14.01,2013-03-24 01:33:00,
2013-03-23 21:38:00,58.6,58.0,29.84,East,86,5.0,5.0,98,0.21,,,1.62,VWS V14.01,2013-03-24 01:38:00,
2013-03-23 21:43:00,58.8,58.2,29.83,East,79,0.0,5.0,98,0.23,,,1.64,VWS V14.01,2013-03-24 01:43:00,
2013-03-23 21:51:00,59.2,58.6,29.84,East,80,0.0,3.0,98,0.24,,,1.67,VWS V14.01,2013-03-24 01:51:00,
2013-03-23 21:57:00,59.4,58.8,29.83,NE,39,2.0,4.0,98,0.24,,,1.68,VWS V14.01,2013-03-24 01:57:00,
2013-03-23 22:03:00,59.6,59.0,29.83,NE,40,0.0,6.0,98,0.25,,,1.70,VWS V14.01,2013-03-24 02:03:00,
2013-03-23 22:08:00,59.8,59.2,29.85,North,10,3.0,5.0,98,0.23,,,1.70,VWS V14.01,2013-03-24 02:08:00,
2013-03-23 22:13:00,59.9,59.3,29.85,ENE,75,3.0,5.0,98,0.21,,,1.70,VWS V14.01,2013-03-24 02:13:00,
2013-03-23 22:18:00,60.0,59.4,29.84,East,81,2.0,3.0,98,0.21,,,1.71,VWS V14.01,2013-03-24 02:18:00,
2013-03-23 22:23:00,60.0,59.4,29.84,NE,52,0.0,6.0,98,0.18,,,1.71,VWS V14.01,2013-03-24 02:23:00,
2013-03-23 22:28:00,60.1,59.5,29.83,East,95,1.0,8.0,98,0.16,,,1.71,VWS V14.01,2013-03-24 02:28:00,
2013-03-23 22:33:00,60.2,59.6,29.83,East,87,2.0,5.0,98,0.13,,,1.71,VWS V14.01,2013-03-24 02:33:00,
2013-03-23 22:38:00,60.3,59.7,29.83,East,85,0.0,7.0,98,0.11,,,1.71,VWS V14.01,2013-03-24 02:38:00,
2013-03-23 22:45:00,60.5,60.2,29.83,NE,50,3.0,6.0,99,0.08,,,1.72,VWS V14.01,2013-03-24 02:45:00,
2013-03-23 22:51:00,60.6,60.3,29.84,ENE,68,4.0,6.0,99,0.06,,,1.72,VWS V14.01,2013-03-24 02:51:00,
2013-03-23 22:57:00,60.7,60.1,29.84,NE,53,3.0,5.0,98,0.07,,,1.75,VWS V14.01,2013-03-24 02:57:00,
2013-03-23 23:03:00,60.8,60.2,29.83,NE,54,1.0,6.0,98,0.08,,,1.76,VWS V14.01,2013-03-24 03:03:00,
2013-03-23 23:08:00,60.8,60.2,29.82,East,95,0.0,6.0,98,0.06,,,1.76,VWS V14.01,2013-03-24 03:08:00,
2013-03-23 23:13:00,60.8,60.2,29.81,SE,141,0.0,2.0,98,0.06,,,1.76,VWS V14.01,2013-03-24 03:13:00,
2013-03-23 23:18:00,60.8,60.2,29.80,East,91,2.0,5.0,98,0.07,,,1.77,VWS V14.01,2013-03-24 03:18:00,
2013-03-23 23:23:00,60.8,60.2,29.80,East,81,0.0,7.0,98,0.06,,,1.77,VWS V14.01,2013-03-24 03:23:00,
2013-03-23 23:28:00,60.9,60.3,29.81,East,82,0.0,3.0,98,0.06,,,1.77,VWS V14.01,2013-03-24 03:28:00,
2013-03-23 23:33:00,61.0,60.4,29.81,East,82,0.0,1.0,98,0.07,,,1.78,VWS V14.01,2013-03-24 03:33:00,
2013-03-23 23:40:00,61.2,60.9,29.80,East,82,0.0,0.0,99,0.08,,,1.79,VWS V14.01,2013-03-24 03:40:00,
2013-03-23 23:46:00,61.3,61.0,29.80,East,82,0.0,0.0,99,0.09,,,1.80,VWS V14.01,2013-03-24 03:46:00,
2013-03-23 23:52:00,61.5,61.2,29.80,SW,216,0.0,5.0,99,0.08,,,1.80,VWS V14.01,2013-03-24 03:52:00,